User: anonymous   Login
Location: Unspecified
(0.0000°N, 0.0000°E)
Time: 17:52:18
(UTC+02:00)
Language:

Ariane H10 - Orbit

View from above orbital plane
View from above orbital plane
View from above satellite
View from above satellite

Ground track
Ground track

The orbit data is extracted from the following two-line orbital elements,

1 21815U 91084C   15215.57232914  .00000031  00000-0  30005-3 0  9991
2 21815 004.3702 003.7422 7188466 236.5843 037.8457 02.31338797196489
Epoch (UTC): 03 August 2015 13:44:09
Eccentricity: 0.7188466
inclination: 4.3702°
perigee height: 411 km
apogee height: 35130 km
right ascension of ascending node: 3.7422°
argument of perigee: 236.5843°
revolutions per day: 2.31338797
mean anomaly at epoch: 37.8457°
orbit number at epoch: 19648

The dashed part of the orbit path shows where the satellite is in the earth's shadow,  

DLR